Flag Weather past 2 weeks in Carson City, Nevada, U.S.A.

Now
59 °F

Passing clouds.


Feels Like: 56 °F
Forecast: 37 / 49 °F
Wind: 17 mph from West

Location: Reno Tahoe International Airport

Current Time: Nov 28, 2014 at 6:21:12 PM

Latest Report: Nov 28, 2014 at 5:55 PM


Visibility: 10 mi

Pressure: 29.77 "Hg

Humidity: 7%

Dew point: -5 °F

Location of Carson CityLocation

Historic Weather in Carson City — Graph

°F

Carson City temperature yesterday

Maximum temperature yesterday: 73 °F (at 1:55 PM)
Minimum temperature yesterday: 41 °F (at 6:55 AM)
Average temperature yesterday: 53 °F

Past Weeks' High & Low Weather Summary

 TemperatureHumidityPressure
High73 °F (Nov 27, 1:55 PM)97% (Nov 20, 11:55 PM)30.58 "Hg (Nov 20, 11:55 PM)
Low20 °F (Nov 17, 3:55 AM)3% (Nov 28, 10:55 AM)29.76 "Hg (Nov 28, 2:55 PM)
Average43 °F51%30.20 "Hg
* Reported Nov 13 4:55 PM — Nov 28 4:55 PM, Carson City, Weather by CustomWeather, © 2014

Note: Actual official high and low records may vary slightly from our data, if they occured in-between our weather recording intervals... More about our weather records

Advertising

Carson City weather history for previous 24 hours

 ConditionsComfort  
Time TempWeatherWind HumidityBarometerVisibility
4:55 PM
Nov 28
59 °FPassing clouds.22 mph7%29.78 "Hg10 mi
3:55 PM62 °FPassing clouds.22 mph6%29.76 "Hg10 mi
2:55 PM65 °FScattered clouds.20 mph5%29.76 "Hg10 mi
1:55 PM65 °FPassing clouds.29 mph4%29.78 "Hg10 mi
12:55 PM66 °FScattered clouds.20 mph3%29.80 "Hg10 mi
11:55 AM67 °FScattered clouds.17 mph3%29.83 "Hg10 mi
10:55 AM66 °FScattered clouds.12 mph3%29.88 "Hg10 mi
9:55 AM63 °FPassing clouds.20 mph5%29.88 "Hg10 mi
8:55 AM61 °FPassing clouds.18 mph6%29.89 "Hg10 mi
7:55 AM59 °FPassing clouds.21 mph6%29.89 "Hg10 mi
6:55 AM57 °FPassing clouds.22 mph7%29.88 "Hg10 mi
5:55 AM48 °FPassing clouds.No wind13%29.91 "Hg10 mi
4:55 AM40 °FClear.7 mph28%29.93 "Hg10 mi
3:55 AM42 °FClear.3 mph32%29.93 "Hg10 mi
2:55 AM42 °FClear.6 mph33%29.95 "Hg10 mi
1:55 AM42 °FClear.7 mph35%29.96 "Hg10 mi
12:55 AM44 °FClear.5 mph34%29.99 "Hg10 mi
11:55 PM
Nov 27
47 °FPassing clouds.7 mph29%30.02 "Hg10 mi
10:55 PM48 °FPassing clouds.7 mph29%30.03 "Hg10 mi
9:55 PM56 °FPassing clouds.No wind21%30.02 "Hg10 mi
8:55 PM57 °FPassing clouds.3 mph20%30.04 "Hg10 mi
7:55 PM56 °FPassing clouds.5 mph21%30.05 "Hg10 mi
6:55 PM55 °FPassing clouds.No wind21%30.07 "Hg10 mi
Weather by CustomWeather, © 2014

See weather overviewHow to use our weather pages